Regional Weather Roundup
Issued by NWS

Home | Current Version | Previous Version | Text Only | Print | Product List | Glossary On
Versions: 1 2 3 4 5 6 7 8 9 10 11 12 13 14 15 16 17 18 19 20 21 22 23 24 25 26 27 28 29 30 31 32 33 34 35 36 37 38 39 40 41 42 43 44 45 46 47 48 49 50
000
ASCA42 TJSJ 150411
RWRPR
PUERTO RICO/U.S. VIRGIN ISLANDS HOURLY WEATHER ROUNDUP
NATIONAL WEATHER SERVICE SAN JUAN PR
1200 AM AST MON SEP 15 2014

PRZ001-004-150500-
PUERTO RICO

CITY           SKY/WX    TMP DP  RH WIND       PRES   REMARKS
SAN JUAN LMM   PTCLDY    81  77  89 SE3       30.02S
PONCE          PTCLDY    75  72  88 CALM      29.96S
AGUADILLA      CLEAR     77  73  88 E5        30.04R
CEIBA          MOCLDY    82  73  74 E8        30.04R
$$

PRZ006-007-150500-
U.S. VIRGIN ISLANDS

CITY           SKY/WX    TMP DP  RH WIND       PRES   REMARKS
$$

HOURLY WEATHER ROUNDUP FOR THE NEWS MEDIA

CITY           SKY/WX    TMP DP  RH WIND       PRES   REMARKS
MIAMI          MOCLDY    83  74  74 NE3       30.14S
ORLANDO        CLEAR     76  73  91 CALM      30.16S
NEW YORK       PTCLDY    62  52  69 SW9       30.20S
NEWARK         CLEAR     60  49  66 W5        30.19S
CHICAGO        PTCLDY    53  47  79 CALM      30.18R
HARTFORD       PTCLDY    48  47  96 N3        30.19S
BOSTON         PTCLDY    54  43  66 NW8       30.22R
DALLAS         MOCLDY    72  64  76 E5        30.14S
PHILADELPHIA   CLEAR     58  48  69 W6        30.22R


USA.gov is the U.S. government's official web portal to all federal, state and local government web resources and services.